Weather History for KCRX - November, 2012

Change the Weather History Date:

Monday, November 12, 2012

  Actual Average Record
Temperature  
Mean Temperature 44 °F -  
Max Temperature 60 °F 61 °F - (-1)
Min Temperature 28 °F 38 °F - (-1)
Degree Days  
Heating Degree Days 21    
Moisture  
Dew Point 38 °F    
Average Humidity 77    
Maximum Humidity 100    
Minimum Humidity 40    
Precipitation  
Precipitation 0.63 in - - ()
Sea Level Pressure  
Sea Level Pressure 30.32 in    
Wind  
Wind Speed 9 mph (NW)    
Max Wind Speed 18 mph    
Max Gust Speed 29 mph    
Visibility 8 miles    
Events Rain    
Averages and records for this station are not official NWS values.
T = Trace of Precipitation, MM = Missing Value Source: NWS Daily Summary

Daily Weather History Graph

Daily Weather History Graph

Search for Another Location

Airport or City:

Trip Planner

Search our weather history database for the weather conditions in past years. The results will help you decide how hot, cold, wet, or windy it might be!

Date:

Astronomy

Nov. 12, 2012 Rise Set
Actual Time 6:26 AM CST 4:50 PM CST
Civil Twilight 5:59 AM CST 5:17 PM CST
Nautical Twilight 5:29 AM CST 5:47 PM CST
Astronomical Twilight 4:59 AM CST 6:17 PM CST
Moon 4:53 AM CST (11/12) 3:54 PM CST (11/12)
Length of Visible Light 11h 17m
Length of Day
10h 24m
Waning Crescent, 2% of the Moon is Illuminated
Nov 12
Waning Crescent
Nov 13
New
Nov 20
First Quarter
Nov 28
Full
Dec 6
Last Quarter

Hourly Weather History & Observations

Time (CST) Temp. Windchill Dew Point Humidity Pressure Visibility Wind Dir Wind Speed Gust Speed Precip Events Conditions
12:05 AM 60.8 °F - 55.4 °F 82% 30.07 in 9.0 mi SSE 11.5 mph 17.3 mph 0.01 in Rain Light Rain
12:25 AM 59.0 °F - 55.4 °F 88% 30.05 in 7.0 mi SSE 9.2 mph - 0.02 in Rain Light Rain
1:25 AM 60.8 °F - 55.4 °F 82% 30.06 in 5.0 mi South 12.7 mph 21.9 mph 0.03 in Rain Light Rain
1:45 AM 59.0 °F - 55.4 °F 88% 30.06 in 4.0 mi South 13.8 mph - 0.10 in Rain Rain
2:05 AM 59.0 °F - 55.4 °F 88% 30.07 in 8.0 mi SSW 9.2 mph 19.6 mph N/A Rain Light Rain
2:25 AM 59.0 °F - 57.2 °F 94% 30.10 in 2.5 mi West 10.4 mph 19.6 mph 0.10 in Rain Heavy Rain
2:45 AM 55.4 °F - 51.8 °F 88% 30.12 in 2.5 mi NW 9.2 mph 18.4 mph 0.26 in Rain Heavy Rain
3:05 AM 53.6 °F - 50.0 °F 88% 30.14 in 3.0 mi NW 9.2 mph - 0.04 in Rain Heavy Rain
3:25 AM 51.8 °F - 50.0 °F 94% 30.13 in 4.0 mi NW 9.2 mph - 0.11 in Rain Rain
4:05 AM 51.8 °F - 50.0 °F 94% 30.13 in 3.0 mi NW 4.6 mph - 0.02 in Rain Heavy Rain
4:25 AM 51.8 °F - 50.0 °F 94% 30.15 in 4.0 mi NW 5.8 mph - 0.08 in Rain Rain
4:45 AM 51.8 °F - 48.2 °F 88% 30.18 in 3.0 mi WNW 9.2 mph - 0.09 in Rain Light Rain
5:05 AM 50.0 °F - 48.2 °F 94% 30.17 in 10.0 mi NW 6.9 mph - N/A Rain Light Rain
5:25 AM 50.0 °F - 48.2 °F 94% 30.18 in 4.0 mi WNW 5.8 mph - 0.01 in Rain Light Rain
5:45 AM 50.0 °F - 48.2 °F 94% 30.20 in 7.0 mi WNW 5.8 mph - 0.02 in Rain Light Rain
6:05 AM 50.0 °F - 48.2 °F 94% 30.18 in 5.0 mi Calm Calm - N/A Rain Light Rain
6:25 AM 50.0 °F - 48.2 °F 94% 30.20 in 7.0 mi WNW 5.8 mph - 0.01 in Rain Light Rain
6:45 AM 50.0 °F - 48.2 °F 94% 30.20 in 8.0 mi WNW 6.9 mph - 0.02 in Rain Light Rain
7:05 AM 50.0 °F - 48.2 °F 94% 30.22 in 4.0 mi WNW 5.8 mph - 0.01 in Rain Rain
7:25 AM 50.0 °F - 48.2 °F 94% 30.23 in 4.0 mi NW 6.9 mph - 0.02 in Rain Light Rain
7:45 AM 50.0 °F - 48.2 °F 94% 30.25 in 4.0 mi NW 18.4 mph 23.0 mph 0.03 in Rain Light Rain
8:05 AM 48.2 °F - 46.4 °F 93% 30.27 in 10.0 mi NW 15.0 mph 21.9 mph N/A Rain Light Rain
8:25 AM 48.2 °F - 46.4 °F 93% 30.27 in 8.0 mi NW 12.7 mph 19.6 mph N/A Rain Light Rain
8:45 AM 46.4 °F 40.7 °F 44.6 °F 93% 30.30 in 1.5 mi NNW 12.7 mph 20.7 mph N/A Rain Light Rain
9:05 AM 46.4 °F 39.8 °F 44.6 °F 93% 30.31 in 3.0 mi NNW 16.1 mph 21.9 mph N/A   Overcast
9:25 AM 44.6 °F 38.4 °F 41.0 °F 87% 30.31 in 10.0 mi NNW 12.7 mph 21.9 mph N/A   Overcast
9:45 AM 44.6 °F 38.8 °F 41.0 °F 87% 30.34 in 10.0 mi NW 11.5 mph 28.8 mph N/A   Overcast
10:05 AM 44.6 °F 38.4 °F 39.2 °F 81% 30.35 in 10.0 mi WNW 12.7 mph 23.0 mph N/A   Overcast
10:25 AM 44.6 °F 37.8 °F 39.2 °F 81% 30.35 in 10.0 mi NW 15.0 mph 20.7 mph N/A   Overcast
10:45 AM 44.6 °F 38.1 °F 39.2 °F 81% 30.36 in 10.0 mi NW 13.8 mph 25.3 mph N/A   Overcast
11:05 AM 44.6 °F 38.4 °F 37.4 °F 76% 30.37 in 10.0 mi NNW 12.7 mph 19.6 mph N/A   Overcast
11:25 AM 44.6 °F 38.8 °F 37.4 °F 76% 30.37 in 10.0 mi NW 11.5 mph 18.4 mph N/A   Overcast
11:45 AM 46.4 °F 40.7 °F 37.4 °F 71% 30.37 in 10.0 mi NNW 12.7 mph 21.9 mph N/A   Mostly Cloudy
12:05 PM 46.4 °F 40.7 °F 35.6 °F 66% 30.36 in 10.0 mi NW 12.7 mph - N/A   Partly Cloudy
12:25 PM 46.4 °F 40.7 °F 35.6 °F 66% 30.36 in 10.0 mi NW 12.7 mph 18.4 mph N/A   Clear
12:45 PM 48.2 °F - 33.8 °F 58% 30.36 in 10.0 mi NW 11.5 mph 21.9 mph N/A   Clear
1:05 PM 48.2 °F - 33.8 °F 58% 30.36 in 10.0 mi NW 9.2 mph - N/A   Clear
1:25 PM 50.0 °F - 32.0 °F 50% 30.35 in 10.0 mi NW 9.2 mph - N/A   Clear
1:45 PM 50.0 °F - 30.2 °F 47% 30.36 in 10.0 mi NNW 11.5 mph 19.6 mph N/A   Clear
2:05 PM 50.0 °F - 32.0 °F 50% 30.35 in 10.0 mi NNW 8.1 mph - N/A   Clear
2:25 PM 50.0 °F - 28.4 °F 43% 30.36 in 10.0 mi NNW 10.4 mph - N/A   Clear
2:45 PM 50.0 °F - 26.6 °F 40% 30.36 in 10.0 mi NW 13.8 mph 18.4 mph N/A   Clear
3:25 PM 48.2 °F - 26.6 °F 43% 30.38 in 10.0 mi NNW 9.2 mph - N/A   Clear
3:45 PM 48.2 °F - 26.6 °F 43% 30.38 in 10.0 mi North 9.2 mph - N/A   Clear
4:05 PM 48.2 °F - 26.6 °F 43% 30.38 in 10.0 mi North 6.9 mph - N/A   Clear
4:25 PM 46.4 °F 42.9 °F 26.6 °F 46% 30.39 in 10.0 mi NNW 6.9 mph - N/A   Clear
4:45 PM 44.6 °F 42.2 °F 24.8 °F 46% 30.40 in 10.0 mi NNW 4.6 mph - N/A   Clear
5:05 PM 44.6 °F 42.2 °F 24.8 °F 46% 30.40 in 10.0 mi NW 4.6 mph - N/A   Clear
5:25 PM 42.8 °F 40.1 °F 24.8 °F 49% 30.41 in 10.0 mi NW 4.6 mph - N/A   Clear
5:45 PM 41.0 °F 39.0 °F 26.6 °F 57% 30.42 in 10.0 mi NNW 3.5 mph - N/A   Clear
6:05 PM 41.0 °F - 26.6 °F 57% 30.43 in 10.0 mi Calm Calm - N/A   Clear
6:25 PM 41.0 °F 39.0 °F 26.6 °F 57% 30.43 in 10.0 mi NNW 3.5 mph - N/A   Clear
6:45 PM 39.2 °F 37.0 °F 26.6 °F 61% 30.44 in 10.0 mi NNW 3.5 mph - N/A   Clear
7:25 PM 37.4 °F - 28.4 °F 70% 30.45 in 10.0 mi Calm Calm - N/A   Clear
7:45 PM 35.6 °F - 30.2 °F 81% 30.45 in 10.0 mi Calm Calm - N/A   Clear
8:05 PM 35.6 °F - 28.4 °F 75% 30.46 in 10.0 mi Calm Calm - N/A   Clear
8:25 PM 33.8 °F 30.8 °F 30.2 °F 87% 30.46 in 10.0 mi WNW 3.5 mph - N/A   Clear
8:45 PM 32.0 °F - 30.2 °F 93% 30.46 in 10.0 mi Calm Calm - N/A   Clear
9:05 PM 32.0 °F - 28.4 °F 87% 30.47 in 10.0 mi Calm Calm - N/A   Clear
9:25 PM 32.0 °F - 28.4 °F 87% 30.47 in 10.0 mi Calm Calm - N/A   Clear
9:45 PM 32.0 °F - 28.4 °F 87% 30.47 in 10.0 mi Calm Calm - N/A   Clear
10:05 PM 30.2 °F - 28.4 °F 93% 30.47 in 10.0 mi Calm Calm - N/A   Clear
10:25 PM 30.2 °F 26.7 °F 28.4 °F 93% 30.46 in 10.0 mi WNW 3.5 mph - N/A   Clear
10:45 PM 30.2 °F 26.7 °F 28.4 °F 93% 30.46 in 10.0 mi NW 3.5 mph - N/A   Clear
11:05 PM 28.4 °F - 28.4 °F 100% 30.46 in 10.0 mi Calm Calm - N/A   Clear
11:25 PM 28.4 °F - 28.4 °F 100% 30.45 in 10.0 mi Calm Calm - N/A   Clear
11:45 PM 28.4 °F 24.6 °F 26.6 °F 93% 30.45 in 10.0 mi NW 3.5 mph - N/A   Clear